Tracking 25648 objects as of 16-May-2022
HD Live streaming from Space Station
objects crossing your sky now

COSMOS 2251 DEB

Track COSMOS 2251 DEB now!
10-day predictions


NORAD ID: 34059
Int'l Code: 1993-036JW
Perigee: 745.0 km
Apogee: 776.3 km
Inclination: 74.0 °
Period: 99.9 minutes
Semi major axis: 7131 km
RCS: 0.045 m2 (small)
Launch date: June 16, 1993
Source: Commonwealth of Independent States (former USSR) (CIS)
Launch site: PLESETSK MISSILE AND SPACE COMPLEX (PKMTR)

Note: This is SATELLITE DEBRIS
aabbcc
Your satellite tracking list
Your tracking list is empty




NASA's NSSDC Master Catalog

Two Line Element Set (TLE):
1 34059U 93036JW  22135.93194571  .00001714  00000-0  53415-3 0  9998
2 34059  74.0430 104.9343 0021922 148.8216 273.3166 14.41503894695660
Source of the keplerian elements: AFSPC